{"data":{"norad_id":66020,"epoch":"2026-05-25T03:43:08.779872Z","epoch_age_seconds":55420,"freshness":"FRESH","line1":"1 66020U 25232R   26145.15496273  .00010073  00000+0  35170-3 0  9992","line2":"2 66020  53.1596 108.6676 0001214  59.5702 300.5418 15.30203908 35128","mean_motion":15.30203908,"eccentricity":0.0001214,"inclination_deg":53.1596,"raan_deg":108.6676,"arg_perigee_deg":59.5702,"mean_anomaly_deg":300.5418,"bstar":0.0003517,"rev_number":3512,"period_min":94.105105370049,"perigee_km":474.37140533591,"apogee_km":476.03539638524,"semimajor_km":6853.3404008606,"source":"CELESTRAK","updated_at":"2026-05-25T13:38:21.016669Z"}}